Погода Черновцы

Поиск расширенной информации на нашем сайте:

Полезная информация:

Новости сайта



02.01.2020
Опубликован Долгосрочный прогноз погоды по городам России и ближнего зарубежья на январь 2020 года.
Карты: Прогноз на январь и февраль 2020 года, Сравнение прогнозируемой аномалии приземной температуры воздуха на январь 2020 года по разным моделям.




Погода Черновцы - сегодня

Время (UTC), дата Ветер
(°,м/с) 
Видим.   Явления Облачность Т
(°С)
Тd
(°С)
f(%) Тe
(°С)
Pmin
(гПа)
dP
(гПа)
Po
(мм)
O2
(г/м3)
Тmin Tmax R s Состояние
почвы
12 16.04.21 280 (З) 50000 м    10/10 1500 м 
[Sc]
+9.1 -1.6 47 +8  1014.8  0.3  739  288           
15 16.04.21 290 (З) 50000 м    10/10 1500 м 
[Sc]
+9.1 -1 49 +8  1015.4  0.6  739  288           
18 16.04.21 260 (З) 50000 м    9/9 1500 м 
[Sc]
+7.8 -1.4 52 +7  1017.4  1.8  741  290    +9.3       
21 16.04.21 320 (СЗ) 50000 м    6/0 средняя, верхняя 
[Ac trans|Ci fib]
+4.4 -1.2 67 +4  1018.4  0.6  741  294           
00 17.04.21 320 (СЗ) 35000 м    10/10 1500 м 
[Sc]
+4.3 +0.6 77 +4  1018.4  741  294           
03 17.04.21 тихо ()   26000 м    10/10 1260 м 
[Sc]
+4.3 +0.6 77 +4  1018.7  0.3  741  294           
06 17.04.21 340 (С) 45000 м    10/10 1500 м 
[Sc]
+5.6 +1 72 +6  1019.4  0.8  742  293  +3.8         
09 17.04.21 030 (СВ) 50000 м    10/10 1500 м 
[Sc]
+8 +1.8 65 +9  1019.5  0.3  742  290           
12 17.04.21 280 (З) 50000 м    9/9 1140 м 
[Sc]
+10.5 +1.1 52 +11  1018.6  -0.6  742  288           
15 17.04.21 090 (В) 50000 м    8/8 1500 м 
[Sc]
+10.8 +1.6 53 +11  1018.4  -0.1  742  287           
18 17.04.21 060 (СВ) 30000 м    5/5 1500 м 
[Sc]
+7.8 +1.4 64 +7  1019.4  0.6  742  290           
21 17.04.21 тихо ()   19000 м    4/4 1500 м 
[Sc]
+5.5 +2.7 82 +6  1019.8  0.2  742  293           
00 18.04.21 тихо ()   11000 м    4/0 средняя 
[Ac trans]
+3.4 +1.9 90 +3  1019.8  -0.3  742  295           
03 18.04.21 тихо ()   4800 м  дымка  3/3 1500 м 
[Sc]
+2 +1.4 96 +2  1019.5  -0.4  742  296           
06 18.04.21 тихо ()   17000 м    9/9 1140 м 
[Sc]
+6.3 +4.9 91 +6  1019.5  0.5  742  291  +1.5         
09 18.04.21 040 (СВ) 50000 м    9/9 1500 м 
[Cu hum]
+11.1 +2.7 56 +11  1018.3  -0.7  742  287           
12 18.04.21 030 (СВ) 50000 м    8/8 1500 м 
[Cu hum]
+11.6 +2.4 53 +12  1017.2  -1  741  286           
15 18.04.21 070 (В) 50000 м    9/9 1500 м 
[Sc]
+10.8 +2.9 58 +11  1017.2  -0.1  741  287           
18 18.04.21 тихо ()   40000 м    9/0 средняя 
[Ac trans]
+9.2 +3 65 +9  1018.1  0.7  741  288    +13.1       
21 18.04.21 тихо ()   25000 м    9/0 средняя 
[Ac trans]
+7.6 +2.9 72 +8  1017.8  -0.5  741  290           
00 19.04.21 тихо ()   23000 м    10/10 1230 м 
[Sc]
+6.8 +3.1 77 +7  1016.8  -1  740  290           
03 19.04.21 300 (СЗ) 11000 м    10/10 1500 м 
[Sc]
+6.2 +3.7 84 +6  1016  -0.8  740  291           
06 19.04.21 350 (С) 15000 м  в посл. час ливневой дождь  9/9 1000 м кучево-дожд. 
[Cb calv]
+7.6 +4.9 83 +9  1016.1  0.2  740  289  +6    0.0     
09 19.04.21 330 (СЗ) 11000 м  в посл. час ливневой дождь  10/5 1000 м кучево-дожд., средняя 
[Cb calv|Ac As]
+8.7 +7 89 +8  1015.8  -0.2  740  288           
12 19.04.21 350 (С) 17000 м  слаб. ливневой дождь  10/5 1000 м кучево-дожд., средняя 
[Cb calv|Ac As]
+10.1 +7.5 84 +9  1015  -0.6  739  286           
Время (UTC), дата Ветер
(°,м/с) 
Видим.   Явления Облачность Т
(°С)
Тd
(°С)
f(%) Тe
(°С)
Pmin
(гПа)
dP
(гПа)
Po
(мм)
O2
(г/м3)
Тmin Tmax R s Состояние
почвы

Для получения пояснительной информации подведите курсор к названию столбца.

ПОГОДА Черновцы - архив

Всё, что Вы хотите узнать о погоде Черновцы - удобно и подробно!

Выберите нужную дату (начиная с 1 января 2019* года) и нажмите кнопку "Найти".
Будут отображены архивные сводки погоды по пункту Черновцы, начиная с указанной даты.


Отображать данные в формате CSV (для использования в таблицах Excel)


Внимание! Наш архив погоды предназначен исключительно для личного некоммерческого использования в познавательных целях. Если Вам необходимы официальные справки о состоянии погоды (для производственных, юридических, коммерческих и т.п. целей), обращайтесь в органы Росгидромета.

*Примечание: данная дата относится к архиву по метеостанциям СССР (Россия, СНГ, Балтия).
Архив по метеостанциям Зарубежной Европы и Азии (кроме Китая) хранится 10 дней, по другим регионам земного шара (Китай, Африка, Америка, Австралия, Океания) - 1 день.

Черновцы - район местоположения метеостанции


Название, широта, долгота, высота метеостанции:
Черновцы 48.4°ш. 25.9°д. 246 м над ур. моря [Украина]

Дополнительная информация

В oтличие oт бoльшинства пoгoдных сайтoв мы публикуем пoдрoбную метеoинфoрмацию в детальнoм прoфессиoнальнoм фoрмате.

Характеристики температуры и влажнoсти вoздуха измеряются на высoте 2 м в тени вдали oт зданий и деревьев.
Скoрoсть ветра измеряется на высoте 10 м (на урoвне рoста челoвека скoрoсть ветра ниже в 1.5-2 раза). Если метеoстанция нахoдится в гoрoде или в лесу, тo скoрoсть ветра занижена на 2-4 м/с пo сравнению с oткрытым местoм. Скoрoсть ветра над акватoриями крупных рек и oзёр, а также на вершинах хoлмoв на 2-5 м/с выше, чем в oбычных услoвиях.
Атмoсфернoе давление в разных тoчках местнoсти мoжет значительнo oтличаться oт давления на метеoстанции, в зависимoсти oт услoвий рельефа (при пoдъёме на 10 м давление пoнижается примернo на 1 мм рт.ст.).